Location: Mesa Vista Observatory
(35.5777°N, 105.6987°W)
Time: 07:01:51
(UTC-06:00)

Vanguard 1 - Visible Passes

Search period start: 26 September 2020 00:00
Search period end: 06 October 2020 00:00
Orbit: 650 x 3832 km, 34.2° (Epoch: 26 September)

Date Brightness Start Highest point End Pass type
(mag) Time Alt. Az. Time Alt. Az. Time Alt. Az.
26 Sep 11.4 05:25:20 20° SW 05:26:43 21° SSW 05:33:08 10° SSE visible
26 Sep 11.7 20:21:14 10° SSW 20:26:50 18° SSE 20:27:32 18° SSE visible
27 Sep 12.5 03:32:45 11° SE 03:32:45 11° SE 03:33:07 10° SE visible
27 Sep 11.8 05:45:30 13° SW 05:47:46 15° SSW 05:52:16 10° S visible
27 Sep 11.3 20:40:56 10° SSW 20:47:37 26° SSE 20:47:37 26° SSE visible
28 Sep 12.4 03:52:56 12° SE 03:52:56 12° SE 03:53:39 10° SE visible
28 Sep 11.1 21:01:11 10° SW 21:07:40 33° S 21:07:40 33° S visible
29 Sep 12.3 04:13:07 12° SSE 04:13:07 12° SSE 04:13:47 10° SSE visible
29 Sep 12.1 19:01:12 10° SSW 19:08:28 19° SSE 19:13:39 10° ESE visible
29 Sep 11.2 21:21:49 10° SW 21:27:41 36° SSW 21:27:41 36° SSW visible
30 Sep 11.8 19:20:37 10° SSW 19:29:36 26° SSE 19:34:56 12° ESE visible
30 Sep 11.4 21:42:43 10° WSW 21:47:40 33° SW 21:47:40 33° SW visible
01 Oct 11.4 19:40:40 10° SW 19:50:41 34° SSE 19:54:53 20° ESE visible
01 Oct 11.8 22:03:48 10° WSW 22:07:36 27° WSW 22:07:36 27° WSW visible
02 Oct 11.0 20:01:11 10° SW 20:11:43 43° SSE 20:14:48 29° ESE visible
02 Oct 12.2 22:24:59 10° WSW 22:27:31 20° WSW 22:27:31 20° WSW visible
03 Oct 10.6 20:22:02 10° SW 20:32:43 54° SSE 20:34:42 42° ESE visible
03 Oct 12.6 22:46:12 10° W 22:47:24 14° W 22:47:24 14° W visible
04 Oct 10.3 20:43:08 10° WSW 20:53:40 64° SSE 20:54:33 60° SE visible
05 Oct 10.3 21:04:24 10° WSW 21:14:23 73° S 21:14:23 73° S visible
